Dewpoint
52 52 51 49 48 50 52 50 51 51 50 49 49 51 51 52 50 51 52 53 52 51 49 50 50 50 50 50 50 47 49 52 51 51 51 51 51 52 51 49 50 49
55 53 52 50 48 48 51 51 52 52 50 50 51 51 53 53 51 51 52 53 51 51 50 50 50 49 49 48 49 48 48 51 50 49 51 51 50 51 50 50 50 49
54 55 55 53 50 50 53 53 53 53 50 50 52 52 53 54 52 51 53 53 51 52 51 51 51 49 50 49 49 49 49 49 50 50 51 50 51 50 49 50 48 49
55 56 55 55 53 51 52 53 52 52 52 50 50 52 53 55 52 52 53 52 52 52 52 51 51 50 48 48 50 49 49 50 49 50 49 49 49 48 49 48 47 47
56 56 55 55 54 54 55 55 53 51 51 51 52 52 52 55 53 52 52 51 52 52 52 51 50 50 49 48 48 48 49 48 49 49 47 47 48 48 48 48 47 47
57 55 53 53 54 54 54 55 54 52 50 52 52 52 53 55 52 52 52 52 51 51 51 51 49 49 49 48 49 49 48 47 48 49 46 46 45 46 43 46 46 47
56 57 56 53 54 54 55 56 55 53 51 50 51 53 52 55 52 51 50 51 50 50 50 50 49 50 49 50 48 49 48 48 47 46 45 46 46 46 44 46 43 43
54 54 56 56 56 55 56 55 54 53 55 53 51 53 52 53 51 52 51 51 49 49 50 49 49 48 48 49 47 49 49 49 47 45 44 44 46 45 46 44 45 43
55 54 53 55 55 55 55 55 55 56 53 53 54 51 51 51 51 51 51 50 50 50 49 49 48 48 49 48 47 48 47 48 47 45 45 46 45 44 42 44 45 46
56 56 54 53 53 53 53 51 54 56 54 54 54 52 52 52 51 50 50 51 51 50 49 49 48 48 48 47 45 46 46 45 45 46 45 45 45 43 39 42 44 44
56 56 56 58 57 57 58 57 57 55 55 53 56 54 53 56 53 49 50 50 52 50 49 49 49 48 48 47 47 48 46 46 45 44 45 45 44 43 47 41 42 42
56 56 57 57 57 59 60 58 55 56 55 54 52 53 52 53 53 52 50 49 50 50 49 49 49 49 47 47 46 47 47 47 46 45 45 43 44 44 42 42 42 40
55 56 57 57 57 58 58 57 56 58 58 58 55 53 52 50 50 51 51 50 50 50 50 50 49 49 48 48 47 46 46 46 46 46 45 45 45 42 41 41 40 38
44 46 48 52 55 56 57 57 57 56 57 56 54 54 52 51 50 49 52 52 51 50 50 50 49 48 48 48 47 47 47 47 46 46 45 45 44 41 40 40 39 38
42 43 44 45 46 48 51 53 56 58 58 58 55 54 55 53 52 52 52 52 51 52 50 50 50 50 48 48 48 47 47 47 47 45 45 44 42 40 40 39 38 38
39 42 42 42 43 44 44 47 49 50 52 54 55 54 54 54 52 54 53 55 53 52 51 52 51 51 49 45 45 47 47 46 47 46 44 43 42 41 40 39 38 39
34 36 39 39 41 43 43 43 43 46 49 51 52 53 54 54 54 54 54 53 54 52 51 52 52 50 43 41 41 43 47 48 46 44 42 41 40 40 39 39 39 36
32 33 33 35 38 38 41 42 43 43 44 47 50 51 52 53 54 53 53 53 56 55 54 57 55 44 40 41 41 40 43 46 44 43 42 41 40 39 38 37 37 38
30 31 31 34 35 36 38 41 41 44 44 44 47 50 51 51 51 53 53 53 53 53 52 54 52 39 38 38 37 37 38 41 41 42 40 39 39 38 36 35 35 35
33 32 33 34 36 36 37 37 39 40 44 47 48 49 50 51 51 51 52 53 53 52 52 52 50 38 37 36 36 35 35 36 41 41 40 37 37 37 37 36 36 36
35 34 35 35 35 36 39 38 39 41 42 43 44 47 49 49 50 51 51 53 52 52 52 53 46 37 36 35 35 34 33 33 40 40 37 36 36 36 36 36 35 36
36 36 37 35 35 36 37 37 39 42 43 45 44 44 46 47 48 49 51 52 52 52 53 45 42 35 35 34 33 33 33 38 38 37 34 34 34 35 35 36 36 36
35 36 37 37 37 37 36 39 40 41 42 44 44 44 45 46 48 47 48 50 51 51 51 43 38 35 33 33 32 32 33 35 38 35 34 35 35 35 35 36 37 35
35 34 34 35 35 35 36 38 40 40 41 43 44 44 44 45 46 46 47 49 50 51 48 40 36 35 33 32 32 31 34 35 35 34 33 33 34 35 35 34 35 43
35 36 36 37 37 36 38 39 40 41 41 42 44 45 45 45 44 46 48 49 50 49 41 38 35 34 34 32 32 32 35 38 33 30 31 32 32 32 35 35 33 38
37 37 38 39 39 40 41 41 41 41 42 43 44 43 42 43 43 45 49 46 42 39 39 37 35 34 35 33 33 33 33 35 33 30 30 31 32 31 33 33 31 30